www.pogodaiklimat.ru

Погода и климат >> Архив погоды >> Австралия >> Западная Австралия >> Роборн аэропорт


ПОГОДА в Роборн аэропорту

  • Прогноз погоды в Роборн аэропорту
  • Монитор погоды в Роборн аэропорту

АРХИВ ПОГОДЫ в Роборн аэропорту

Время (UTC), дата Ветер
(напр.,м/с)
 
Видим.   Явления Облачность Т
(С)
Тd
(С)
f
(%)
Тe
(С)
Тes
(С)
Комфортность P
(гПа)
Po
(гПа)
Тmin
(С)
Tmax
(С)
R
(мм)
R24
(мм)
S
(см)
07 18.06 СВ 5 н/о н/о +28.6 +4.8 22 +27 +27 жарко 1014.2 1012.9
09 18.06 С 4 н/о н/о +26.6 +5.5 26 +26 +26 жарко 1013.9 1012.6
10 18.06 СЗ 3 н/о н/о +22.0 +7.4 39 +23 +23 комфорт 1014.3 1013.0
12 18.06 З 1 н/о н/о +17.7 +5.0 43 +19 +19 1015.2 1013.9
13 18.06 ЮЗ 4 н/о н/о +18.5 +8.2 51 +19 +19 1015.8 1014.5 +29.6
15 18.06 ЮЗ 3 н/о н/о +15.9 +7.1 56 +15 +15 1015.7 1014.4
16 18.06 ЮЗ 4 н/о н/о +16.4 +8.9 61 +16 +16 1015.0 1013.7
18 18.06 ЮЗ 3 н/о н/о +14.5 +7.5 63 +14 +14 1014.8 1013.5
19 18.06 ЮЗ 4 н/о н/о +12.8 +6.4 65 +11 +11 1014.5 1013.2
21 18.06 штиль 0 н/о н/о +11.8 +5.0 63 +11 +11 1014.3 1013.0
22 18.06 штиль 0 н/о н/о +11.0 +5.3 68 +11 +11 1014.6 1013.3
00 19.06 Ю 2 н/о н/о +17.9 +7.3 50 +19 +19 1015.6 1014.3
01 19.06 ЮВ 6 н/о н/о +23.4 +4.9 30 +23 +23 комфорт 1015.9 1014.6 +10.8
03 19.06 В 6 н/о н/о +26.7 +4.5 24 +26 +26 жарко 1015.0 1013.7
04 19.06 СВ 5 н/о н/о +27.8 +4.8 23 +27 +27 жарко 1014.2 1012.9
06 19.06 С 5 н/о н/о +28.1 +5.6 24 +27 +27 жарко 1013.3 1012.0
07 19.06 СВ 5 н/о н/о +27.4 +5.1 24 +26 +26 жарко 1013.1 1011.8
09 19.06 С 5 н/о н/о +23.6 +12.0 48 +25 +25 комфорт 1013.4 1012.1
10 19.06 С 3 н/о н/о +22.7 +12.9 54 +26 +26 жарко 1013.7 1012.4
12 19.06 СЗ 3 н/о н/о +21.3 +13.2 60 +24 +24 комфорт 1014.4 1013.1
13 19.06 Ю 2 н/о н/о +20.5 +12.2 59 +23 +23 комфорт 1014.9 1013.6 +29.2
15 19.06 В 1 н/о н/о +18.1 +12.1 68 +20 +20 1015.5 1014.2
16 19.06 Ю 2 н/о н/о +17.6 +11.9 69 +18 +18 1015.3 1014.0
18 19.06 ЮЗ 3 н/о н/о +15.8 +10.8 72 +16 +16 1015.0 1013.7
19 19.06 ЮЗ 3 н/о н/о +15.1 +10.9 76 +14 +14 1014.7 1013.4
21 19.06 ЮЗ 3 н/о н/о +14.9 +12.2 84 +14 +14 1014.5 1013.2
22 19.06 СВ 1 н/о н/о +13.8 +9.6 76 +15 +15 1014.9 1013.6
00 20.06 В 1 н/о н/о +18.6 +12.6 68 +21 +21 комфорт 1016.6 1015.3
01 20.06 В 3 н/о н/о +22.8 +13.8 57 +26 +26 жарко 1016.9 1015.6 +13.9
03 20.06 С 2 н/о н/о +26.1 +18.2 62 +31 +31 очень
душно
1016.1 1014.8
04 20.06 С 3 н/о н/о +26.2 +18.9 64 +31 +31 очень
душно
1015.6 1014.3
06 20.06 СВ 5 н/о н/о +26.1 +19.5 67 +32 +32 очень
душно
1014.4 1013.1
07 20.06 СВ 5 н/о н/о +25.5 +19.9 71 +31 +31 очень
душно
1014.5 1013.2
09 20.06 СВ 5 н/о н/о +24.3 +19.6 75 +30 +30 очень
душно
1014.5 1013.2
10 20.06 С 4 н/о н/о +22.5 +19.3 82 +28 +28 душно 1015.0 1013.7
12 20.06 СВ 2 н/о н/о +20.4 +18.7 90 +25 +25 комфорт 1016.4 1015.1
13 20.06 СВ 3 н/о н/о +20.2 +19.5 96 +24 +24 комфорт 1016.2 1014.9 +26.9
15 20.06 С 4 н/о н/о +20.8 +20.5 98 +26 +26 душно 1016.2 1014.9
16 20.06 СВ 4 н/о н/о +21.0 +20.7 98 +26 +26 душно 1016.1 1014.8
18 20.06 В 4 н/о н/о +20.6 +20.6 100 +25 +25 комфорт 1015.5 1014.2
19 20.06 В 3 н/о н/о +19.8 +19.6 99 +23 +23 комфорт 1014.9 1013.6
21 20.06 ЮВ 2 н/о н/о +19.7 +19.7 100 +23 +23 комфорт 1014.9 1013.6
22 20.06 Ю 3 н/о н/о +19.8 +19.8 100 +23 +23 комфорт 1015.2 1013.9
00 21.06 ЮВ 2 н/о н/о +19.7 +19.7 100 +23 +23 комфорт 1017.1 1015.8
01 21.06 ЮВ 1 н/о н/о +19.9 +19.9 100 +24 +24 комфорт 1017.8 1016.5 +18.7
03 21.06 В 5 н/о н/о +21.4 +21.2 99 +27 +27 душно 1017.3 1016.0
04 21.06 В 6 н/о н/о +21.9 +20.2 90 +28 +28 душно 1016.5 1015.2
06 21.06 В 4 н/о н/о +19.6 +17.7 89 +22 +22 комфорт 1016.2 1014.9
07 21.06 В 5 н/о н/о +20.2 +18.3 89 +23 +23 комфорт 1015.4 1014.1
09 21.06 В 5 н/о н/о +19.2 +19.2 100 +21 +21 комфорт 1016.2 1014.9
10 21.06 В 5 н/о н/о +19.0 +19.0 100 +20 +20 1016.8 1015.5
12 21.06 ЮВ 5 н/о н/о +18.8 +18.8 100 +20 +20 1017.1 1015.8
13 21.06 Ю 4 н/о н/о +18.7 +18.7 100 +20 +20 1017.0 1015.7 +22.5
15 21.06 Ю 4 н/о н/о +18.9 +18.7 99 +20 +20 1016.2 1014.9
16 21.06 ЮВ 4 н/о н/о +19.1 +18.3 95 +21 +21 комфорт 1015.8 1014.5
18 21.06 В 1 н/о н/о +18.6 +18.6 100 +21 +21 комфорт 1015.2 1013.9
19 21.06 Ю 2 н/о н/о +18.4 +18.2 99 +20 +20 1014.9 1013.6
21 21.06 В 4 н/о н/о +18.6 +16.2 86 +19 +19 1015.0 1013.7
22 21.06 ЮВ 3 н/о н/о +18.3 +16.1 87 +19 +19 1015.7 1014.4
00 22.06 ЮВ 5 н/о н/о +19.9 +14.5 71 +22 +22 комфорт 1016.7 1015.4
01 22.06 В 7 н/о н/о +22.2 +12.2 53 +25 +25 комфорт 1017.0 1015.7 +18.3
03 22.06 В 8 н/о н/о +23.7 +9.3 40 +25 +25 комфорт 1016.5 1015.2
04 22.06 В 9 н/о н/о +24.2 +12.5 48 +26 +26 жарко 1016.0 1014.7
06 22.06 СВ 7 н/о н/о +24.1 +15.9 60 +27 +27 жарко 1014.7 1013.4
07 22.06 СВ 7 н/о н/о +24.0 +16.3 62 +27 +27 жарко 1014.5 1013.2
09 22.06 СВ 5 н/о н/о +22.2 +17.3 74 +27 +27 душно 1014.5 1013.2
10 22.06 В 3 н/о н/о +20.3 +17.9 86 +24 +24 комфорт 1014.9 1013.6
12 22.06 В 4 н/о н/о +17.7 +17.2 97 +18 +18 1015.4 1014.1
13 22.06 ЮВ 3 н/о н/о +17.4 +16.9 97 +18 +18 1015.9 1014.6 +25.0
15 22.06 Ю 3 н/о н/о +17.5 +17.3 99 +18 +18 1016.1 1014.8
16 22.06 ЮВ 2 н/о н/о +17.8 +16.8 94 +18 +18 1015.6 1014.3
18 22.06 штиль 0 н/о н/о +18.3 +17.3 94 +19 +19 1014.9 1013.6
19 22.06 С 2 н/о н/о +17.8 +17.0 95 +18 +18 1014.7 1013.4
21 22.06 ЮВ 2 н/о н/о +17.3 +16.0 92 +18 +18 1015.0 1013.7
22 22.06 В 2 н/о н/о +16.9 +14.7 87 +17 +17 1015.3 1014.0
00 23.06 В 3 н/о н/о +19.1 +12.8 67 +20 +20 1016.6 1015.3
01 23.06 В 4 н/о н/о +21.9 +10.4 48 +24 +24 комфорт 1017.2 1015.9 +16.6
03 23.06 СВ 6 н/о н/о +23.4 +13.3 53 +27 +27 душно 1017.1 1015.8
04 23.06 СВ 6 н/о н/о +24.4 +15.6 58 +27 +27 жарко 1016.5 1015.2
06 23.06 СВ 5 н/о н/о +25.3 +18.2 65 +30 +30 душно 1015.5 1014.2
07 23.06 В 5 н/о н/о +24.8 +18.5 68 +29 +29 душно 1015.4 1014.1
09 23.06 В 4 н/о н/о +23.2 +18.3 74 +29 +29 душно 1016.2 1014.9
10 23.06 В 3 н/о н/о +21.3 +18.1 82 +26 +26 душно 1016.8 1015.5
12 23.06 В 3 н/о н/о +19.1 +18.1 94 +21 +21 комфорт 1017.6 1016.3
13 23.06 В 2 н/о н/о +18.6 +18.1 97 +20 +20 1018.0 1016.7 +25.8
15 23.06 штиль 0 н/о н/о +18.2 +18.0 99 +19 +19 1017.8 1016.5
16 23.06 штиль 0 н/о н/о +17.6 +17.6 100 +18 +18 1017.6 1016.3
18 23.06 Ю 1 н/о н/о +16.0 +16.0 100 +17 +17 1017.1 1015.8
19 23.06 Ю 2 н/о н/о +16.6 +16.6 100 +17 +17 1016.8 1015.5
21 23.06 Ю 1 н/о н/о +15.8 +15.8 100 +16 +16 1016.8 1015.5
22 23.06 штиль 0 н/о н/о +15.0 +15.0 100 +15 +15 1017.1 1015.8
00 24.06 штиль 0 н/о н/о +17.5 +17.5 100 +17 +17 1018.0 1016.7
01 24.06 ЮВ 2 н/о н/о +21.3 +20.5 95 +27 +27 душно 1018.3 1017.0 +13.6
03 24.06 В 4 н/о н/о +26.0 +15.1 51 +29 +29 душно 1018.2 1016.9
04 24.06 В 4 н/о н/о +27.3 +12.9 41 +29 +29 жарко 1017.8 1016.5
06 24.06 СВ 5 н/о н/о +29.0 +2.3 18 +27 +27 жарко 1017.0 1015.7
07 24.06 С 5 н/о н/о +28.3 +1.7 18 +26 +26 жарко 1017.0 1015.7
09 24.06 С 5 н/о н/о +25.1 +6.8 31 +25 +25 комфорт 1017.7 1016.4
10 24.06 С 2 н/о н/о +22.5 +11.3 49 +25 +25 комфорт 1018.2 1016.9
12 24.06 ЮЗ 2 н/о н/о +17.9 +13.0 73 +19 +19 1019.4 1018.1
13 24.06 ЮЗ 2 н/о н/о +18.0 +14.1 78 +19 +19 1019.8 1018.5
15 24.06 ЮЗ 2 н/о н/о +16.0 +13.8 87 +16 +16 1019.6 1018.3
16 24.06 штиль 0 н/о н/о +14.8 +13.7 93 +14 +14 1019.3 1018.0
18 24.06 штиль 0 н/о н/о +13.2 +12.1 93 +13 +13 1018.4 1017.1
19 24.06 штиль 0 н/о н/о +12.6 +11.7 94 +12 +12 1018.1 1016.8
21 24.06 штиль 0 н/о н/о +12.1 +11.2 94 +11 +11 1018.4 1017.1
22 24.06 штиль 0 н/о н/о +12.3 +10.5 89 +12 +12 1018.7 1017.4
00 25.06 штиль 0 н/о н/о +16.2 +13.3 83 +16 +16 1019.8 1018.5
01 25.06 штиль 0 н/о н/о +20.4 +12.1 59 +22 +22 комфорт 1020.1 1018.8
03 25.06 В 4 н/о н/о +28.9 +3.7 20 +27 +27 жарко 1019.8 1018.5
04 25.06 В 5 н/о н/о +29.4 +1.8 17 +27 +27 жарко 1019.2 1017.9
06 25.06 СВ 5 н/о н/о +29.9 +1.4 16 +27 +27 жарко 1018.0 1016.7
07 25.06 СВ 5 н/о н/о +29.6 +0.2 15 +27 +27 жарко 1018.1 1016.8

 

Местоположение метеостанции Роборн аэропорт (Западная Австралия, Австралия): широта -20.75 долгота 117.15 высота над уровнем моря 11 м.

В архиве по умолчанию представлена погода в Роборн аэропорту за последнюю неделю. Архивные данные за месяц целиком и за предыдущие месяцы, начиная с января 2011 года, Вы можете получить, выбрав интересующий диапазон дат из раскрывающегося списка и нажав кнопку "Ввод!".


*Определитесь, кто Вы:
робот инопланетянин человек

Внимание! Время в таблицах - всемирное. Для получения местного времени необходимо прибавить поправку, которая равна 8 ч.

Смотрите также архив погоды в соседних городах и на ближайших метеорологических станциях:

Погода в Каррате (Западная Австралия, Австралия) (40 км)
Погода в Марди (Западная Австралия, Австралия) (132 км)
Погода в Порт-Хедленде Apardoo (Западная Австралия, Австралия) (160 км)
Погода на Острове Варанас (Западная Австралия, Австралия) (165 км)
Погода в Барроу-Айленд (Западная Австралия, Австралия) (183 км)
Погода в Онслоу (Западная Австралия, Австралия) (234 км)
Погода на Острове Тевенард (Западная Австралия, Австралия) (234 км)
Погода в Марбл-баре (Западная Австралия, Австралия) (274 км)
Погода в Параберду (Западная Австралия, Австралия) (276 км)
Погода в Лермонте (Западная Австралия, Австралия) (358 км)

Пояснения к столбцам:

Ветер - указаны скорость ветра в м/с - средняя за 10 мин, порывы в срок и между сроками (в фигурных скобках) и направление, откуда дует ветер: С - северный, СВ - северо-восточный, В - восточный, ЮВ - юго-восточный, Ю - южный, ЮЗ - юго-западный, З - западный, СЗ - северо-западный.
Видимость - горизонтальная дальность видимости в метрах или километрах. При видимости от 1 до 10 км при отсутствии осадков обычно наблюдается дымка, при ухудшении видимости до 1 км и менее - туман. В сухую погоду видимость может ухудшаться дымом, пылью или мглою.
Явления - указаны атмосферные явления, наблюдавшиеся в срок или в последний час перед сроком; фигурными скобками обозначены явления, наблюдавшиеся между сроками (за 1-3 часа до срока); квадратными скобками обозначены град или гололедные отложения с указанием их диаметра в мм.
Облачность - указаны через наклонную черту общая и нижняя облачность в баллах и высота нижней границы облаков в метрах; квадратными скобками обозначены формы облаков: Ci - перистые, Cs - перисто-слоистые, Cc - перисто-кучевые, Ac - высококучевые, As - высокослоистые, Sc - слоисто-кучевые, Ns - слоисто-дождевые, Cu - кучевые, Cb - кучево-дождевые. Подробнее классификацию облаков см. в Атласе облаков (PDF).
T - Температура воздуха - температура, измеренная на высоте 2 м над землей.
Td - Температура точки росы - температура, при понижении до которой содержащийся в воздухе водяной пар достигнет насыщения.
f - Относительная влажность воздуха - влажноcть воздуха, измеренная на высоте 2 м над землей.
Te - Эффективная температура - температура, которую ощущает одетый по сезону человек в тени. Характеристика душности погоды. При расчете учитывается влияние влажности воздуха и скорости ветра на теплоощущения человека.
Tes - Эффективная температура на солнце - температура, которую ощущает человек, с поправкой на солнечный нагрев. Характеристика знойности погоды. Зависит от высоты солнца над горизонтом, облачности и скорости ветра. Ночью, в пасмурную погоду, а также при ветре 12 м/с и более поправка равна нулю.
P - Атмосферное давление - приведенное к уровню моря атмосферное давление.
Po - Атмосферное давление - измеренное на уровне метеостанции атмосферное давление.
Tmin - Минимальная температура - минимум температуры воздуха на высоте 2 м над землей.
Tmax - Максимальная температура - максимум температуры воздуха на высоте 2 м над землей.
R - Количество осадков - Количество выпавших осадков за период времени, мм. При наведении курсора мыши на число - период времени, за который выпало указанное количество осадков.
R24 - Количество осадков - Количество выпавших осадков за 24 часа, мм.
S - Снежный покров - Высота снежного покрова, см. При наведении курсора мыши на число - состояние снежного покрова и степень покрытия местности в баллах.